PP5ABU-13 Weather Reports


time (UTC)temp
F
wind
direction
speed
knots
gust
knots
rain 1hr
in
rain 24hr
in
rain mn
in
humidity
%
barometer
mb
20260507213004 75 326 3.5 8.7 0.00 0.00 0.00 95 1004.7
20260507211504 75 335 3.5 7.0 0.00 0.00 0.00 94 1004.9
20260507210004 75 337 4.3 9.6 0.00 0.00 0.00 92 1004.6
20260507204504 75 330 4.3 9.6 0.00 0.00 0.00 91 1004.4
20260507203004 76 326 4.3 9.6 0.00 0.00 0.00 88 1004.3
20260507201504 76 339 5.2 10.4 0.00 0.00 0.00 86 1004.4
20260507200004 77 349 4.3 9.6 0.00 0.00 0.00 83 1004.4
20260507194504 79 315 6.1 12.2 0.00 0.00 0.00 78 1004.1
20260507193004 80 323 5.2 10.4 0.00 0.00 0.00 77 1004.1
20260507191503 81 324 6.1 10.4 0.00 0.00 0.00 76 1004.3
20260507190005 81 328 6.1 13.0 0.00 0.00 0.00 75 1004.3
20260507184504 81 326 6.1 13.0 0.00 0.00 0.00 75 1004.3
20260507183004 79 336 4.3 7.8 0.00 0.00 0.00 76 1004.4
20260507181504 81 330 6.1 9.6 0.00 0.00 0.00 73 1004.5
20260507180004 82 326 5.2 9.6 0.00 0.00 0.00 69 1004.6
20260507174504 83 325 5.2 9.6 0.00 0.00 0.00 68 1004.6
20260507173004 83 319 5.2 9.6 0.00 0.00 0.00 67 1005.0
20260507171504 84 336 4.3 7.0 0.00 0.00 0.00 66 1005.1
20260507170004 83 335 4.3 7.8 0.00 0.00 0.00 68 1005.3
20260507164504 80 343 5.2 11.3 0.00 0.00 0.00 72 1005.5
20260507163004 83 335 4.3 9.6 0.00 0.00 0.00 69 1005.8
20260507161504 82 316 5.2 9.6 0.00 0.00 0.00 70 1006.5
20260507160004 80 345 5.2 12.2 0.00 0.00 0.00 73 1006.8
20260507154504 79 325 4.3 7.0 0.00 0.00 0.00 77 1007.2
20260507153004 78 316 4.3 8.7 0.00 0.00 0.00 78 1007.7
20260507151504 78 326 4.3 8.7 0.00 0.00 0.00 78 1008.0
20260507150005 79 322 4.3 9.6 0.00 0.00 0.00 76 1008.3
20260507144504 79 320 4.3 8.7 0.00 0.00 0.00 77 1008.8
20260507143004 78 323 5.2 8.7 0.00 0.00 0.00 77 1008.9
20260507141504 78 340 4.3 9.6 0.00 0.00 0.00 79 1009.3
20260507140005 78 333 5.2 9.6 0.00 0.00 0.00 78 1009.5
20260507134504 78 310 4.3 9.6 0.00 0.00 0.00 81 1009.7
20260507133004 77 318 5.2 9.6 0.00 0.00 0.00 82 1010.2
20260507131504 76 320 5.2 11.3 0.00 0.00 0.00 82 1010.4
20260507130004 76 310 5.2 9.6 0.00 0.00 0.00 82 1010.3
20260507124504 76 307 3.5 8.7 0.00 0.00 0.00 83 1010.6
20260507123004 76 324 4.3 9.6 0.00 0.00 0.00 84 1010.8
20260507121504 75 337 4.3 9.6 0.00 0.00 0.00 85 1011.0
20260507120005 75 329 3.5 6.1 0.00 0.00 0.00 87 1011.2
20260507114504 75 324 3.5 7.8 0.00 0.00 0.00 90 1011.1
20260507113004 74 316 3.5 8.7 0.00 0.00 0.00 92 1011.3
20260507111504 74 329 3.5 7.0 0.00 0.00 0.00 93 1011.1
20260507110005 73 345 2.6 4.3 0.00 0.00 0.00 95 1011.2
20260507104504 73 340 2.6 7.0 0.00 0.00 0.00 97 1011.0
20260507103004 73 331 2.6 4.3 0.00 0.00 0.00 97 1010.9
20260507101504 73 321 2.6 5.2 0.00 0.00 0.00 99 1011.0
20260507100004 73 329 2.6 5.2 0.00 0.00 0.00 99 1011.0
20260507094504 72 325 1.7 3.5 0.00 0.00 0.00 99 1011.0
20260507093004 72 322 2.6 3.5 0.00 0.00 0.00 99 1011.2
20260507091505 72 321 2.6 5.2 0.00 0.00 0.00 99 1010.9
20260507090005 72 331 2.6 4.3 0.00 0.00 0.00 99 1010.8
20260507084504 72 333 1.7 3.5 0.00 0.00 0.00 99 1010.7
20260507083005 72 332 1.7 3.5 0.00 0.00 0.00 99 1010.7
20260507081504 72 316 1.7 4.3 0.00 0.00 0.00 99 1010.5
20260507080005 72 338 1.7 4.3 0.00 0.00 0.00 99 1010.5
20260507074504 72 337 2.6 4.3 0.00 0.00 0.00 99 1010.4
20260507071504 72 328 1.7 7.0 0.00 0.00 0.00 99 1010.6
20260507070008 73 326 1.7 5.2 0.00 0.00 0.00 99 1010.7
20260507064504 73 328 1.7 5.2 0.00 0.00 0.00 99 1011.1
20260507063004 73 344 1.7 3.5 0.00 0.00 0.00 99 1011.3
20260507061504 73 333 1.7 3.5 0.00 0.00 0.00 99 1011.3
20260507060004 72 323 1.7 2.6 0.00 0.00 0.00 99 1011.7
20260507054505 73 341 1.7 3.5 0.00 0.00 0.00 99 1011.8
20260507053005 73 321 2.6 3.5 0.00 0.00 0.00 99 1012.0
20260507051504 72 331 1.7 3.5 0.00 0.00 0.00 99 1012.3
20260507050005 72 325 1.7 3.5 0.00 0.00 0.00 99 1012.3
20260507044504 72 317 1.7 3.5 0.00 0.00 0.00 99 1012.2
20260507043004 72 331 1.7 4.3 0.00 0.00 0.00 99 1012.6
20260507041504 72 324 1.7 3.5 0.00 0.00 0.00 99 1012.7
20260507040005 72 331 1.7 3.5 0.00 0.00 0.00 99 1012.9
20260507034504 72 325 2.6 4.3 0.00 0.00 0.00 99 1013.1
20260507033004 73 329 2.6 5.2 0.00 0.00 0.00 99 1013.2
20260507031504 73 324 2.6 6.1 0.00 0.00 0.00 99 1013.4
20260507030004 72 334 2.6 5.2 0.00 0.00 0.00 99 1013.3
20260507024504 72 329 2.6 7.0 0.00 0.00 0.00 99 1013.4
20260507023004 72 336 2.6 6.1 0.00 0.00 0.00 99 1013.7
20260507021504 72 345 2.6 6.1 0.00 0.00 0.00 99 1013.8
20260507020004 72 330 1.7 3.5 0.00 0.00 0.00 99 1013.9
20260507014504 72 336 1.7 4.3 0.00 0.00 0.00 99 1013.9
20260507013004 72 332 2.6 4.3 0.00 0.00 0.00 99 1013.9
20260507011504 72 315 1.7 3.5 0.00 0.00 0.00 99 1014.1
20260507010004 72 331 0.9 3.5 0.00 0.00 0.00 99 1014.0
20260507004504 72 322 1.7 3.5 0.00 0.00 0.00 99 1013.9
20260507003004 73 327 1.7 3.5 0.00 0.00 0.00 99 1014.2
20260507001504 73 334 2.6 6.1 0.00 0.00 0.00 99 1014.0
20260507000004 73 326 1.7 2.6 0.00 0.00 0.00 99 1014.3
20260506234504 73 327 0.9 3.5 0.00 0.00 0.00 99 1014.2
20260506233004 73 345 1.7 3.5 0.00 0.00 0.00 99 1014.3
20260506231504 73 339 2.6 4.3 0.00 0.00 0.00 99 1014.3
20260506230004 73 328 2.6 4.3 0.00 0.00 0.00 99 1014.1
20260506224504 73 317 2.6 4.3 0.00 0.00 0.00 99 1013.9
20260506223004 74 331 1.7 3.5 0.00 0.00 0.00 99 1014.0
20260506221504 74 323 1.7 3.5 0.00 0.00 0.00 100 1013.9
20260506220004 74 329 2.6 4.3 0.00 0.00 0.00 97 1013.9
20260506214504 74 320 2.6 4.3 0.00 0.00 0.00 96 1013.6